Showing default

OPS 0100 (TRANSIT 15), 2754

Orbit data source: Space-Track

OPS 0100 (TRANSIT 15), 2754 is a payload satellite owned by USN NAVAIR (US) in LEO that was launched on Fri, 14 Apr 1967 UTC via an SCOUT A launch vehicle from the Air Force Western Test Range (AFWTR). Payload-class satellites include a variety of spacecraft equipped with specific instruments for various scientific and technological missions. These include communications satellites like Starlink; space stations such as the ISS; scientific satellites like the Hubble; Earth observation satellites from companies like Planet Labs, Umbra, and HawkEye 360; GPS; miniature CubeSats for education and research; and military/defense satellites.

Loading next visibility...
Identifier
2754, 1967-034A
Orbit
LEO
Country
Flag of USUS
Related business
Manufacturer
APL
Mission
Spacecraft
Bus & Motor
TRANSIT 5, Unknown motor
Mass
~50 kg wet, ~50 kg dry
Launch date (UTC)
1967-04-14 (59 years ago)
Launch vehicle
SCOUT A
Launch site
Air Force Western Test Range (AFWTR)
Object type
Payload
Rocket body
Debris
Shape & HBR
Unknown
Radar Cross Section
Large (>1 m²)

Expand to show TLE details & history
Last TLE update: 11 hours ago

TLE from 11 hours ago
0 OPS 0100 (TRANSIT 15)
1  2754U 67034A   26124.77344080  .00000134  00000-0  17515-3 0  9996
2  2754  90.2380  34.1322 0017485 275.0718 148.2095 13.57396595920229
Epoch: 2026-05-04T18:33Z
TLE epoch observation values (Epoch: 2026-05-04T18:33:45.285Z)
Latitude
63.47047°
Longitude
-107.43861°
Altitude
1,067.216 km
Speed
7.319 km/s
True Right ascension
02h 14m 37s
True Declination
63° 20' 19"
Sunlit
Object was in daylight at epoch
Visualization orbit readout
Latitude
Unknown
Longitude
Unknown
Altitude
Unknown
Speed
Unknown
Apparent Right ascension
Unknown
Apparent Declination
Unknown
Sunlit
N/A
Visualization observer readout
Local Sidereal Time
13:36:21
Azimuth
Unknown
Elevation
Unknown
Doppler factor
Unknown
Orbital elements
Apogee altitude
1,055.182 km
Perigee altitude
1,029.233 km
Semi-major axis
7,420.345 km
Eccentricity
0.00175
Inclination
90.238°
RAAN
34.1322°
Arg. of periapsis
275.0718°
True anomaly
148.31486°
Mean anomaly
148.2095°
Eccentric anomaly
148.2622°
Mean motion
3.39553 °/min
Orbital period
106.02 mins
BSTAR
0.00017515
Loading maneuver chart data...
Computing Atmospheric mass density...
Loading historical data...
Loading historical data...
Loading historical data...
Loading historical data...
Loading historical data...
Loading historical data...
Loading historical data...

Documentation

Showing up to 5 results
|